EWG8EL EDDH-EGLL

Flight info

Callsign EWG8EL
Flight time 1h 17m
Altitude 36000
Route WSN5G WSN N125 ITMIZ DCT ABNED L980 LOGAN
Aircraft A320/M-SDE3FGHIRWY/LB1

Departure

Time 2026-05-04 19:35
Airport Hamburg Helmut Schmidt Airport (EDDH)

Arrival

Time 2026-05-04 20:53
Airport London Heathrow Airport (EGLL)
Time Latitude Longitude Altitude Speed Heading
2026-05-04 19:03 53.63373 10.00337 24 ft 0 kts 86°
2026-05-04 19:20 53.63372 10.00283 47 ft 4 kts 91°
2026-05-04 19:20 53.63374 10.00238 46 ft 4 kts 98°
2026-05-04 19:20 53.63377 10.00208 47 ft 4 kts 105°
2026-05-04 19:21 53.63393 10.00161 48 ft 4 kts 162°
2026-05-04 19:21 53.63398 10.00158 49 ft 0 kts 176°
2026-05-04 19:25 53.63377 10.00163 48 ft 7 kts 173°
2026-05-04 19:26 53.63305 10.00173 48 ft 11 kts 177°
2026-05-04 19:26 53.63232 10.00180 49 ft 10 kts 177°
2026-05-04 19:26 53.63169 10.00187 47 ft 8 kts 175°
2026-05-04 19:26 53.63152 10.00189 51 ft 0 kts 175°
2026-05-04 19:29 53.63136 10.00191 51 ft 7 kts 175°
2026-05-04 19:29 53.63061 10.00175 48 ft 11 kts 207°
2026-05-04 19:30 53.63010 10.00121 51 ft 7 kts 213°
2026-05-04 19:30 53.62975 10.00083 50 ft 5 kts 212°
2026-05-04 19:30 53.62947 10.00053 48 ft 4 kts 212°
2026-05-04 19:30 53.62917 9.99985 50 ft 13 kts 246°
2026-05-04 19:31 53.62894 9.99907 50 ft 0 kts 243°
2026-05-04 19:33 53.62888 9.99888 48 ft 8 kts 243°
2026-05-04 19:33 53.62864 9.99778 47 ft 10 kts 272°
2026-05-04 19:34 53.62894 9.99719 50 ft 0 kts 332°
2026-05-04 19:34 53.62899 9.99714 50 ft 6 kts 332°
2026-05-04 19:35 53.63137 9.99509 50 ft 74 kts 333°
2026-05-04 19:35 53.63779 9.98956 46 ft 132 kts 333°
2026-05-04 19:35 53.64721 9.98133 217 ft 160 kts 332°
2026-05-04 19:35 53.65698 9.97281 898 ft 158 kts 332°
2026-05-04 19:36 53.66697 9.96428 1469 ft 167 kts 333°
2026-05-04 19:36 53.67808 9.95482 1766 ft 190 kts 333°
2026-05-04 19:36 53.69060 9.94415 2114 ft 210 kts 332°
2026-05-04 19:36 53.70378 9.93282 2828 ft 214 kts 328°
2026-05-04 19:37 53.71409 9.91554 3549 ft 212 kts 290°
2026-05-04 19:37 53.71553 9.89037 3978 ft 230 kts 259°
2026-05-04 19:37 53.71132 9.86299 4430 ft 250 kts 251°
2026-05-04 19:37 53.70540 9.83501 5235 ft 255 kts 249°
2026-05-04 19:38 53.69906 9.80679 6104 ft 258 kts 249°
2026-05-04 19:38 53.69273 9.77831 6940 ft 261 kts 250°
2026-05-04 19:38 53.68650 9.74942 7767 ft 263 kts 250°
2026-05-04 19:38 53.68042 9.72014 8602 ft 266 kts 251°
2026-05-04 19:39 53.67440 9.69053 9433 ft 269 kts 251°
2026-05-04 19:39 53.66837 9.66030 9872 ft 272 kts 251°
2026-05-04 19:39 53.66240 9.63001 10102 ft 274 kts 251°
2026-05-04 19:39 53.65617 9.59863 10472 ft 293 kts 249°
2026-05-04 19:40 53.64691 9.56661 10729 ft 314 kts 238°
2026-05-04 19:40 53.63410 9.53622 11308 ft 322 kts 235°
2026-05-04 19:40 53.62086 9.50544 12004 ft 326 kts 235°
2026-05-04 19:40 53.60750 9.47431 12655 ft 331 kts 234°
2026-05-04 19:41 53.59389 9.44262 13336 ft 336 kts 234°
2026-05-04 19:41 53.58015 9.41069 13994 ft 339 kts 235°
2026-05-04 19:41 53.56623 9.37836 14622 ft 342 kts 235°
2026-05-04 19:41 53.55220 9.34584 15258 ft 345 kts 235°
2026-05-04 19:42 53.53804 9.31304 15879 ft 348 kts 235°
2026-05-04 19:42 53.52378 9.28000 16502 ft 350 kts 235°
2026-05-04 19:42 53.50963 9.24636 17107 ft 353 kts 240°
2026-05-04 19:42 53.49933 9.20887 17702 ft 355 kts 248°
2026-05-04 19:43 53.49004 9.17041 18315 ft 357 kts 249°
2026-05-04 19:43 53.48073 9.13150 18848 ft 360 kts 249°
2026-05-04 19:43 53.47138 9.09243 19401 ft 362 kts 248°
2026-05-04 19:43 53.46199 9.05313 19941 ft 364 kts 248°
2026-05-04 19:44 53.45253 9.01365 20493 ft 366 kts 248°
2026-05-04 19:44 53.44299 8.97381 21028 ft 368 kts 248°
2026-05-04 19:44 53.43335 8.93378 21576 ft 371 kts 248°
2026-05-04 19:44 53.42365 8.89365 22110 ft 373 kts 247°
2026-05-04 19:45 53.41385 8.85322 22632 ft 375 kts 247°
2026-05-04 19:45 53.40396 8.81253 23069 ft 379 kts 246°
2026-05-04 19:45 53.39393 8.77145 23544 ft 382 kts 246°
2026-05-04 19:45 53.38381 8.72999 23951 ft 385 kts 246°
2026-05-04 19:46 53.37369 8.68847 24373 ft 386 kts 246°
2026-05-04 19:46 53.36355 8.64683 24793 ft 387 kts 246°
2026-05-04 19:46 53.35338 8.60512 25206 ft 388 kts 246°
2026-05-04 19:46 53.34313 8.56320 25602 ft 389 kts 246°
2026-05-04 19:47 53.33282 8.52131 26010 ft 389 kts 246°
2026-05-04 19:47 53.32248 8.47944 26406 ft 390 kts 246°
2026-05-04 19:47 53.31210 8.43740 26804 ft 391 kts 246°
2026-05-04 19:47 53.30171 8.39530 27183 ft 392 kts 246°
2026-05-04 19:48 53.29142 8.35368 27556 ft 393 kts 246°
2026-05-04 19:48 53.28092 8.31143 27917 ft 394 kts 246°
2026-05-04 19:48 53.27035 8.26909 28274 ft 395 kts 246°
2026-05-04 19:48 53.25976 8.22667 28619 ft 396 kts 246°
2026-05-04 19:49 53.24912 8.18402 28939 ft 398 kts 245°
2026-05-04 19:49 53.23844 8.14119 29240 ft 400 kts 245°
2026-05-04 19:49 53.22770 8.09822 29544 ft 401 kts 245°
2026-05-04 19:49 53.21693 8.05524 29847 ft 402 kts 245°
2026-05-04 19:50 53.20608 8.01210 30121 ft 404 kts 245°
2026-05-04 19:50 53.19517 7.96882 30367 ft 405 kts 245°
2026-05-04 19:50 53.18422 7.92559 30592 ft 406 kts 245°
2026-05-04 19:50 53.17320 7.88218 30800 ft 407 kts 245°
2026-05-04 19:51 53.16214 7.83865 31029 ft 408 kts 245°
2026-05-04 19:51 53.15109 7.79517 31323 ft 407 kts 245°
2026-05-04 19:51 53.14005 7.75176 31634 ft 406 kts 245°
2026-05-04 19:51 53.12904 7.70860 31933 ft 405 kts 245°
2026-05-04 19:52 53.11804 7.66545 32226 ft 404 kts 245°
2026-05-04 19:52 53.10706 7.62249 32520 ft 403 kts 245°
2026-05-04 19:52 53.09608 7.57957 32799 ft 403 kts 246°
2026-05-04 19:52 53.08506 7.53670 33093 ft 402 kts 246°
2026-05-04 19:53 53.07405 7.49410 33387 ft 401 kts 246°
2026-05-04 19:53 53.06305 7.45157 33697 ft 400 kts 246°
2026-05-04 19:53 53.05223 7.40967 33996 ft 399 kts 246°
2026-05-04 19:53 53.04129 7.36737 34245 ft 398 kts 246°
2026-05-04 19:54 53.03034 7.32508 34436 ft 399 kts 246°
2026-05-04 19:54 53.01936 7.28274 34610 ft 400 kts 245°
2026-05-04 19:54 53.00830 7.24035 34797 ft 400 kts 245°
2026-05-04 19:54 52.99718 7.19793 34967 ft 401 kts 245°
2026-05-04 19:55 52.98605 7.15550 35137 ft 402 kts 245°
2026-05-04 19:55 52.97489 7.11289 35302 ft 403 kts 245°
2026-05-04 19:55 52.96372 7.07021 35454 ft 404 kts 245°
2026-05-04 19:55 52.95247 7.02728 35592 ft 406 kts 245°
2026-05-04 19:56 52.94119 6.98435 35739 ft 407 kts 245°
2026-05-04 19:56 52.92985 6.94134 35914 ft 407 kts 245°
2026-05-04 19:56 52.91844 6.89827 35991 ft 407 kts 245°
2026-05-04 19:57 52.89569 6.81251 36008 ft 406 kts 245°
2026-05-04 19:57 52.87294 6.72698 36008 ft 406 kts 245°
2026-05-04 19:58 52.85007 6.64129 36009 ft 406 kts 245°
2026-05-04 19:58 52.82715 6.55593 36002 ft 406 kts 245°
2026-05-04 19:59 52.80415 6.47041 35991 ft 407 kts 244°
2026-05-04 19:59 52.78102 6.38476 35990 ft 408 kts 244°
2026-05-04 20:00 52.75778 6.29910 35990 ft 409 kts 244°
2026-05-04 20:00 52.73440 6.21350 36000 ft 409 kts 244°
2026-05-04 20:01 52.71108 6.12791 36004 ft 409 kts 244°
2026-05-04 20:01 52.68771 6.04231 35999 ft 409 kts 244°
2026-05-04 20:02 52.66425 5.95684 36009 ft 410 kts 244°
2026-05-04 20:02 52.64073 5.87185 36003 ft 411 kts 244°
2026-05-04 20:03 52.61699 5.78636 35999 ft 411 kts 244°
2026-05-04 20:03 52.59315 5.70080 36002 ft 412 kts 244°
2026-05-04 20:04 52.56927 5.61530 35994 ft 412 kts 244°
2026-05-04 20:04 52.54529 5.52961 35995 ft 412 kts 244°
2026-05-04 20:05 52.52123 5.44409 36003 ft 413 kts 244°
2026-05-04 20:05 52.49706 5.35856 35995 ft 413 kts 244°
2026-05-04 20:06 52.47277 5.27300 35997 ft 414 kts 244°
2026-05-04 20:06 52.45253 5.20185 35994 ft 414 kts 244°
2026-05-04 20:07 52.42815 5.11625 36001 ft 414 kts 244°
2026-05-04 20:07 52.40373 5.03074 35995 ft 415 kts 243°
2026-05-04 20:08 52.37892 4.94456 36009 ft 415 kts 243°
2026-05-04 20:08 52.35448 4.85972 35995 ft 416 kts 243°
2026-05-04 20:09 52.32968 4.77406 35994 ft 417 kts 243°
2026-05-04 20:09 52.30480 4.68852 35996 ft 417 kts 243°
2026-05-04 20:10 52.27984 4.60289 35990 ft 417 kts 243°
2026-05-04 20:10 52.25481 4.51729 36007 ft 418 kts 243°
2026-05-04 20:11 52.22971 4.43176 36007 ft 418 kts 243°
2026-05-04 20:11 52.20459 4.34631 36012 ft 418 kts 243°
2026-05-04 20:12 52.17931 4.26095 36002 ft 418 kts 243°
2026-05-04 20:12 52.15396 4.17574 36002 ft 418 kts 243°
2026-05-04 20:13 52.12859 4.09051 36007 ft 418 kts 243°
2026-05-04 20:13 52.10321 4.00550 36004 ft 418 kts 243°
2026-05-04 20:14 52.07770 3.92053 36020 ft 418 kts 243°
2026-05-04 20:14 52.05205 3.83558 36015 ft 419 kts 243°
2026-05-04 20:15 52.02655 3.75111 36009 ft 419 kts 243°
2026-05-04 20:15 52.00085 3.66620 36000 ft 419 kts 243°
2026-05-04 20:16 51.97506 3.58131 35997 ft 420 kts 243°
2026-05-04 20:16 51.94907 3.49637 36006 ft 421 kts 242°
2026-05-04 20:17 51.92303 3.41142 36012 ft 421 kts 242°
2026-05-04 20:17 51.89696 3.32654 36021 ft 421 kts 242°
2026-05-04 20:18 51.87077 3.24176 36025 ft 421 kts 242°
2026-05-04 20:18 51.84928 3.15392 36014 ft 423 kts 256°
2026-05-04 20:19 51.84210 3.05933 36026 ft 425 kts 262°
2026-05-04 20:19 51.83593 2.96431 36022 ft 425 kts 262°
2026-05-04 20:20 51.82953 2.86932 36031 ft 425 kts 262°
2026-05-04 20:20 51.82310 2.77415 35768 ft 426 kts 262°
2026-05-04 20:20 51.81988 2.72651 35518 ft 426 kts 262°
2026-05-04 20:21 51.81667 2.67907 35278 ft 425 kts 262°
2026-05-04 20:21 51.81349 2.63213 35036 ft 425 kts 262°
2026-05-04 20:21 51.80695 2.53724 34554 ft 424 kts 261°
2026-05-04 20:22 51.80361 2.48995 34322 ft 424 kts 261°
2026-05-04 20:22 51.80028 2.44268 34083 ft 423 kts 261°
2026-05-04 20:22 51.79695 2.39552 33660 ft 421 kts 262°
2026-05-04 20:22 51.79362 2.34883 33140 ft 416 kts 262°
2026-05-04 20:23 51.79029 2.30267 32610 ft 411 kts 262°
2026-05-04 20:23 51.78699 2.25710 32076 ft 407 kts 261°
2026-05-04 20:23 51.78372 2.21194 31564 ft 403 kts 262°
2026-05-04 20:23 51.78080 2.16708 31057 ft 400 kts 262°
2026-05-04 20:24 51.77819 2.12244 30561 ft 397 kts 263°
2026-05-04 20:24 51.77574 2.07821 30058 ft 395 kts 263°
2026-05-04 20:24 51.77331 2.03417 29522 ft 391 kts 263°
2026-05-04 20:24 51.77085 1.99074 29040 ft 386 kts 263°
2026-05-04 20:25 51.76838 1.94790 28568 ft 382 kts 263°
2026-05-04 20:25 51.76585 1.90541 28105 ft 378 kts 263°
2026-05-04 20:25 51.76331 1.86340 27651 ft 374 kts 263°
2026-05-04 20:25 51.76076 1.82175 27209 ft 371 kts 262°
2026-05-04 20:26 51.75820 1.78050 26762 ft 367 kts 263°
2026-05-04 20:26 51.75565 1.73973 26355 ft 364 kts 262°
2026-05-04 20:26 51.75311 1.69916 25934 ft 361 kts 262°
2026-05-04 20:26 51.75060 1.65910 25526 ft 357 kts 263°
2026-05-04 20:27 51.74810 1.61939 25121 ft 354 kts 262°
2026-05-04 20:27 51.74559 1.57986 24624 ft 358 kts 263°
2026-05-04 20:27 51.74300 1.53954 24071 ft 363 kts 263°
2026-05-04 20:27 51.74038 1.49880 23507 ft 365 kts 263°
2026-05-04 20:28 51.73774 1.45801 22915 ft 365 kts 263°
2026-05-04 20:28 51.73512 1.41739 22371 ft 363 kts 262°
2026-05-04 20:28 51.73248 1.37688 21826 ft 363 kts 263°
2026-05-04 20:28 51.72984 1.33646 21290 ft 362 kts 263°
2026-05-04 20:29 51.72723 1.29654 20752 ft 362 kts 262°
2026-05-04 20:29 51.72455 1.25567 20200 ft 362 kts 263°
2026-05-04 20:29 51.72188 1.21527 19657 ft 362 kts 263°
2026-05-04 20:29 51.71921 1.17534 19122 ft 363 kts 263°
2026-05-04 20:30 51.71643 1.13439 18570 ft 363 kts 262°
2026-05-04 20:30 51.71369 1.09385 17983 ft 364 kts 263°
2026-05-04 20:30 51.71094 1.05323 17456 ft 363 kts 263°
2026-05-04 20:30 51.70819 1.01316 17160 ft 355 kts 262°
2026-05-04 20:31 51.70552 0.97443 16894 ft 340 kts 262°
2026-05-04 20:31 51.70294 0.93691 16233 ft 334 kts 263°
2026-05-04 20:31 51.70044 0.90049 15530 ft 330 kts 263°
2026-05-04 20:31 51.69790 0.86378 14829 ft 329 kts 263°
2026-05-04 20:32 51.69534 0.82728 14362 ft 325 kts 263°
2026-05-04 20:32 51.69277 0.79121 13654 ft 323 kts 264°
2026-05-04 20:32 51.69020 0.75539 12910 ft 319 kts 263°
2026-05-04 20:32 51.68769 0.72010 12198 ft 315 kts 264°
2026-05-04 20:33 51.68522 0.68522 11742 ft 312 kts 263°
2026-05-04 20:33 51.68278 0.65029 11488 ft 313 kts 264°
2026-05-04 20:33 51.68034 0.61551 11239 ft 312 kts 263°
2026-05-04 20:33 51.67786 0.58075 10991 ft 311 kts 263°
2026-05-04 20:34 51.67537 0.54630 10746 ft 308 kts 263°
2026-05-04 20:34 51.67291 0.51249 10491 ft 301 kts 263°
2026-05-04 20:34 51.67047 0.47934 10263 ft 294 kts 263°
2026-05-04 20:34 51.66808 0.44697 10015 ft 289 kts 263°
2026-05-04 20:35 51.66574 0.41516 9774 ft 286 kts 263°
2026-05-04 20:35 51.66337 0.38325 9336 ft 286 kts 263°
2026-05-04 20:35 51.66101 0.35173 9006 ft 281 kts 263°
2026-05-04 20:35 51.65865 0.32029 8552 ft 282 kts 263°
2026-05-04 20:36 51.65633 0.28905 8130 ft 281 kts 263°
2026-05-04 20:36 51.65402 0.25818 7893 ft 273 kts 263°
2026-05-04 20:36 51.65183 0.22931 7762 ft 253 kts 263°
2026-05-04 20:36 51.64976 0.20201 7439 ft 241 kts 264°
2026-05-04 20:37 51.64780 0.17577 7137 ft 233 kts 263°
2026-05-04 20:37 51.64585 0.14963 6924 ft 236 kts 264°
2026-05-04 20:37 51.64419 0.12334 6686 ft 235 kts 265°
2026-05-04 20:37 51.64279 0.09734 6511 ft 231 kts 266°
2026-05-04 20:38 51.64144 0.07150 6467 ft 233 kts 266°
2026-05-04 20:38 51.64006 0.04532 6415 ft 235 kts 266°
2026-05-04 20:38 51.63866 0.01926 6361 ft 233 kts 266°
2026-05-04 20:38 51.63723 -0.00686 6309 ft 234 kts 265°
2026-05-04 20:39 51.63577 -0.03312 6250 ft 235 kts 265°
2026-05-04 20:39 51.63431 -0.05928 6197 ft 234 kts 265°
2026-05-04 20:39 51.63286 -0.08533 6141 ft 233 kts 265°
2026-05-04 20:39 51.63139 -0.11139 6091 ft 234 kts 265°
2026-05-04 20:40 51.62989 -0.13743 6041 ft 233 kts 265°
2026-05-04 20:40 51.62837 -0.16345 5992 ft 233 kts 265°
2026-05-04 20:40 51.62687 -0.18939 5937 ft 232 kts 265°
2026-05-04 20:40 51.62538 -0.21532 5883 ft 231 kts 265°
2026-05-04 20:41 51.62391 -0.24093 5840 ft 229 kts 265°
2026-05-04 20:41 51.62245 -0.26626 5788 ft 227 kts 266°
2026-05-04 20:41 51.62099 -0.29156 5740 ft 228 kts 265°
2026-05-04 20:41 51.61950 -0.31703 5686 ft 229 kts 265°
2026-05-04 20:42 51.61800 -0.34253 5605 ft 228 kts 265°
2026-05-04 20:42 51.61652 -0.36781 5553 ft 227 kts 265°
2026-05-04 20:42 51.61503 -0.39320 5499 ft 229 kts 265°
2026-05-04 20:42 51.61351 -0.41866 5455 ft 227 kts 265°
2026-05-04 20:43 51.61201 -0.44382 5402 ft 226 kts 265°
2026-05-04 20:43 51.61051 -0.46907 5355 ft 227 kts 265°
2026-05-04 20:43 51.60900 -0.49431 5301 ft 227 kts 265°
2026-05-04 20:43 51.60749 -0.51962 5251 ft 226 kts 265°
2026-05-04 20:44 51.60596 -0.54478 5198 ft 227 kts 265°
2026-05-04 20:44 51.60439 -0.57010 5101 ft 227 kts 265°
2026-05-04 20:44 51.60285 -0.59538 5003 ft 227 kts 265°
2026-05-04 20:44 51.60134 -0.62067 5014 ft 227 kts 266°
2026-05-04 20:45 51.59983 -0.64588 4910 ft 226 kts 265°
2026-05-04 20:45 51.59826 -0.67119 4782 ft 227 kts 266°
2026-05-04 20:45 51.59670 -0.69637 4654 ft 227 kts 266°
2026-05-04 20:45 51.59514 -0.72158 4522 ft 226 kts 266°
2026-05-04 20:46 51.59362 -0.74639 4394 ft 226 kts 266°
2026-05-04 20:46 51.58993 -0.77117 4261 ft 226 kts 242°
2026-05-04 20:46 51.57978 -0.78890 4125 ft 217 kts 212°
2026-05-04 20:46 51.56562 -0.79629 4010 ft 215 kts 181°
2026-05-04 20:47 51.55071 -0.79566 3887 ft 215 kts 176°
2026-05-04 20:47 51.54070 -0.79506 3808 ft 217 kts 176°
2026-05-04 20:47 51.52571 -0.79422 3674 ft 213 kts 177°
2026-05-04 20:47 51.51096 -0.79344 3550 ft 212 kts 175°
2026-05-04 20:48 51.49626 -0.79259 3435 ft 210 kts 174°
2026-05-04 20:48 51.48289 -0.78525 3344 ft 204 kts 137°
2026-05-04 20:48 51.47620 -0.76636 3160 ft 194 kts 96°
2026-05-04 20:48 51.47604 -0.74469 3043 ft 195 kts 88°
2026-05-04 20:49 51.47624 -0.72297 2964 ft 195 kts 88°
2026-05-04 20:49 51.47639 -0.70131 2766 ft 192 kts 88°
2026-05-04 20:49 51.47652 -0.68033 2533 ft 184 kts 88°
2026-05-04 20:49 51.47663 -0.66045 2285 ft 170 kts 87°
2026-05-04 20:50 51.47672 -0.64243 2068 ft 155 kts 86°
2026-05-04 20:50 51.47681 -0.62576 1868 ft 145 kts 86°
2026-05-04 20:50 51.47690 -0.60975 1676 ft 143 kts 85°
2026-05-04 20:50 51.47698 -0.59382 1487 ft 142 kts 86°
2026-05-04 20:51 51.47706 -0.57804 1292 ft 141 kts 86°
2026-05-04 20:51 51.47714 -0.56236 1099 ft 141 kts 86°
2026-05-04 20:51 51.47721 -0.54664 909 ft 142 kts 86°
2026-05-04 20:51 51.47729 -0.53078 702 ft 143 kts 86°
2026-05-04 20:52 51.47735 -0.51471 501 ft 143 kts 86°
2026-05-04 20:52 51.47740 -0.49898 317 ft 142 kts 85°
2026-05-04 20:52 51.47758 -0.48272 120 ft 145 kts 87°
2026-05-04 20:52 51.47763 -0.46821 88 ft 107 kts 90°
2026-05-04 20:53 51.47763 -0.45905 84 ft 62 kts 90°
2026-05-04 20:53 51.47765 -0.45319 86 ft 48 kts 89°
2026-05-04 20:53 51.47751 -0.44918 91 ft 26 kts 118°
2026-05-04 20:53 51.47666 -0.44806 90 ft 11 kts 147°
2026-05-04 20:54 51.47601 -0.44748 89 ft 10 kts 109°
2026-05-04 20:54 51.47577 -0.44665 89 ft 7 kts 147°
2026-05-04 20:54 51.47556 -0.44658 86 ft 0 kts 174°
2026-05-04 20:55 51.47548 -0.44657 88 ft 6 kts 174°
2026-05-04 20:55 51.47503 -0.44607 86 ft 8 kts 122°
2026-05-04 20:55 51.47468 -0.44556 87 ft 6 kts 169°
2026-05-04 20:56 51.47426 -0.44559 86 ft 5 kts 181°
2026-05-04 20:56 51.47392 -0.44559 86 ft 4 kts 179°
2026-05-04 20:56 51.47364 -0.44559 86 ft 3 kts 179°
2026-05-04 20:56 51.47344 -0.44559 86 ft 2 kts 179°
2026-05-04 20:57 51.47318 -0.44558 86 ft 9 kts 179°
2026-05-04 20:57 51.47236 -0.44557 86 ft 12 kts 180°
2026-05-04 20:57 51.47158 -0.44557 86 ft 11 kts 180°
2026-05-04 20:57 51.47087 -0.44557 86 ft 10 kts 180°
2026-05-04 20:58 51.47026 -0.44556 86 ft 8 kts 179°
2026-05-04 20:58 51.46972 -0.44555 86 ft 7 kts 179°
2026-05-04 20:58 51.46924 -0.44554 86 ft 6 kts 179°
2026-05-04 20:58 51.46882 -0.44553 86 ft 5 kts 179°
2026-05-04 20:59 51.46847 -0.44555 86 ft 5 kts 181°
2026-05-04 20:59 51.46826 -0.44570 89 ft 3 kts 236°
2026-05-04 20:59 51.46821 -0.44597 88 ft 3 kts 260°
2026-05-04 20:59 51.46821 -0.44621 88 ft 2 kts 269°
2026-05-04 21:00 51.46821 -0.44636 86 ft 1 kts 269°
2026-05-04 21:00 51.46820 -0.44656 86 ft 2 kts 269°
2026-05-04 21:00 51.46820 -0.44673 90 ft 1 kts 267°
2026-05-04 21:00 51.46820 -0.44680 90 ft 0 kts 267°